Location: Gaast
(52.9002°N, 5.8891°E)
Time: 01:06:16
(UTC+00:00)

Timation 2 Rocket - Pass Details

Date: 18 November 2025
Orbit: 904 x 1074 km, 70.0° (Epoch: 13 December)

Event Time Altitude Azimuth Distance (km) Brightness Sun altitude
Rises 17:22:53 0° 206° (SSW) 3,849 7.7 -15.5°
Reaches altitude 10° 17:25:30 10° 205° (SSW) 2,903 7.0 -15.9°
Maximum altitude 17:32:22 79° 120° (ESE) 1,095 4.1 -16.9°
Enters shadow 17:38:22 14° 35° (NE) 2,596 5.8 -17.8°
